Terminal Aerodrome Forecast
Issued by NWS Twin Cities, MN

Home | Current Version | Previous Version | Graphics & Text | Print | Product List | Glossary On
Versions: 1 2 3 4 5 6 7 8 9 10 11 12 13 14 15 16 17 18 19 20 21 22 23 24 25 26 27
682
FTUS43 KMPX 231722
TAFMSP
TAF
KMSP 231722Z 2318/2424 VRB05KT P6SM VCSH SCT020 BKN040 OVC080
     FM240200 02006KT P6SM BKN070
     FM240900 01006KT P6SM SCT015 BKN025
     FM241700 03005KT P6SM SCT045=

USA.gov is the U.S. government's official web portal to all federal, state and local government web resources and services.